Time,TemperatureF,DewpointF,PressureIn,WindDirection,WindDirectionDegrees,WindSpeedMPH,WindSpeedGustMPH,Humidity,HourlyPrecipIn,Conditions,Clouds,dailyrainin,SoftwareType,DateUTC
2013-05-15 00:01:00,56.8,46.4,29.77,NW,315,3.5,3.5,68,0.00,CLR,SKC,0.00,WeatherDisplay:10.37,2013-05-15 04:01:00,
2013-05-15 00:02:00,56.8,46.4,29.77,NW,315,3.8,3.8,68,0.00,CLR,SKC,0.00,WeatherDisplay:10.37,2013-05-15 04:02:00,
2013-05-15 00:05:00,56.8,46.4,29.77,NW,315,3.5,3.5,68,0.00,CLR,SKC,0.00,WeatherDisplay:10.37,2013-05-15 04:05:00,
2013-05-15 00:07:00,56.8,46.4,29.77,NW,315,3.5,3.5,68,0.00,CLR,SKC,0.00,WeatherDisplay:10.37,2013-05-15 04:07:00,
2013-05-15 00:12:00,57.0,46.2,29.77,North,0,4.6,4.6,67,0.00,CLR,SKC,0.00,WeatherDisplay:10.37,2013-05-15 04:12:00,
2013-05-15 00:17:00,57.0,45.8,29.77,North,0,5.8,5.8,66,0.00,CLR,SKC,0.00,WeatherDisplay:10.37,2013-05-15 04:17:00,
2013-05-15 00:18:00,57.2,45.5,29.77,NW,315,5.8,5.8,65,0.00,CLR,SKC,0.00,WeatherDisplay:10.37,2013-05-15 04:18:00,
2013-05-15 00:23:00,57.2,45.5,29.76,North,0,5.8,5.8,65,0.00,CLR,SKC,0.00,WeatherDisplay:10.37,2013-05-15 04:23:00,
2013-05-15 00:28:00,57.2,45.5,29.76,North,0,5.8,5.8,65,0.00,CLR,SKC,0.00,WeatherDisplay:10.37,2013-05-15 04:28:00,
2013-05-15 00:33:00,57.2,45.5,29.76,NNW,338,5.8,5.8,65,0.00,CLR,SKC,0.00,WeatherDisplay:10.37,2013-05-15 04:33:00,
2013-05-15 00:38:00,57.2,45.5,29.77,North,0,3.5,3.5,65,0.00,CLR,SKC,0.00,WeatherDisplay:10.37,2013-05-15 04:38:00,
2013-05-15 00:43:00,57.2,45.5,29.77,NNW,338,3.5,3.5,65,0.00,CLR,SKC,0.00,WeatherDisplay:10.37,2013-05-15 04:43:00,
2013-05-15 00:48:00,57.0,45.8,29.77,WNW,292,4.6,4.6,66,0.00,CLR,SKC,0.00,WeatherDisplay:10.37,2013-05-15 04:48:00,
2013-05-15 00:53:00,56.8,45.6,29.76,North,0,4.6,4.6,66,0.00,CLR,SKC,0.00,WeatherDisplay:10.37,2013-05-15 04:53:00,
2013-05-15 00:58:00,56.8,45.6,29.76,NW,315,4.6,4.6,66,0.00,CLR,SKC,0.00,WeatherDisplay:10.37,2013-05-15 04:58:00,
2013-05-15 01:03:00,56.7,45.8,29.75,North,0,3.5,3.5,67,0.00,CLR,SKC,0.00,WeatherDisplay:10.37,2013-05-15 05:03:00,
2013-05-15 01:08:00,56.3,45.9,29.76,North,0,5.8,5.8,68,0.00,CLR,SKC,0.00,WeatherDisplay:10.37,2013-05-15 05:08:00,
2013-05-15 01:13:00,56.1,45.7,29.75,NW,315,3.8,3.8,68,0.00,CLR,SKC,0.00,WeatherDisplay:10.37,2013-05-15 05:13:00,
2013-05-15 01:18:00,55.9,45.9,29.75,NW,315,5.8,5.8,69,0.00,CLR,SKC,0.00,WeatherDisplay:10.37,2013-05-15 05:18:00,
2013-05-15 01:23:00,55.9,45.9,29.76,NNW,338,3.5,3.5,69,0.00,CLR,SKC,0.00,WeatherDisplay:10.37,2013-05-15 05:23:00,
2013-05-15 01:28:00,55.9,45.9,29.75,NW,315,6.9,6.9,69,0.00,CLR,SKC,0.00,WeatherDisplay:10.37,2013-05-15 05:28:00,
2013-05-15 01:33:00,55.8,45.7,29.76,NW,315,3.8,3.8,69,0.00,CLR,SKC,0.00,WeatherDisplay:10.37,2013-05-15 05:33:00,
2013-05-15 01:38:00,55.8,45.7,29.76,NW,315,3.5,3.5,69,0.00,CLR,SKC,0.00,WeatherDisplay:10.37,2013-05-15 05:38:00,
2013-05-15 01:43:00,55.4,45.8,29.76,NW,315,3.5,3.5,70,0.00,CLR,SKC,0.00,WeatherDisplay:10.37,2013-05-15 05:43:00,
2013-05-15 01:48:00,55.2,46.3,29.76,NW,315,3.5,3.5,72,0.00,CLR,SKC,0.00,WeatherDisplay:10.37,2013-05-15 05:48:00,
2013-05-15 01:53:00,54.9,46.0,29.76,NW,315,2.3,2.3,72,0.00,CLR,SKC,0.00,WeatherDisplay:10.37,2013-05-15 05:53:00,
2013-05-15 01:58:00,54.7,46.2,29.76,North,0,2.3,2.3,73,0.00,CLR,SKC,0.00,WeatherDisplay:10.37,2013-05-15 05:58:00,
2013-05-15 02:03:00,54.5,46.0,29.76,North,0,2.3,2.3,73,0.00,CLR,SKC,0.00,WeatherDisplay:10.37,2013-05-15 06:03:00,
2013-05-15 02:08:00,54.3,45.8,29.76,NW,315,1.1,1.1,73,0.00,CLR,SKC,0.00,WeatherDisplay:10.37,2013-05-15 06:08:00,
2013-05-15 02:13:00,54.5,46.0,29.76,North,0,1.1,1.6,73,0.00,CLR,SKC,0.00,WeatherDisplay:10.37,2013-05-15 06:13:00,
2013-05-15 02:18:00,54.5,46.4,29.76,North,0,2.3,2.3,74,0.00,CLR,SKC,0.00,WeatherDisplay:10.37,2013-05-15 06:18:00,
2013-05-15 02:23:00,54.3,46.2,29.76,NW,315,2.3,2.3,74,0.00,CLR,SKC,0.00,WeatherDisplay:10.37,2013-05-15 06:23:00,
2013-05-15 02:28:00,54.1,46.4,29.76,North,0,3.5,3.5,75,0.00,CLR,SKC,0.00,WeatherDisplay:10.37,2013-05-15 06:28:00,
2013-05-15 02:33:00,53.8,46.0,29.76,NW,315,3.5,3.5,75,0.00,CLR,SKC,0.00,WeatherDisplay:10.37,2013-05-15 06:33:00,
2013-05-15 02:38:00,54.0,46.2,29.75,NW,315,3.5,3.5,75,0.00,CLR,SKC,0.00,WeatherDisplay:10.37,2013-05-15 06:38:00,
2013-05-15 02:43:00,54.0,46.2,29.76,NNW,338,3.5,3.5,75,0.00,CLR,SKC,0.00,WeatherDisplay:10.37,2013-05-15 06:43:00,
2013-05-15 02:48:00,54.0,46.6,29.75,North,0,2.3,2.3,76,0.00,CLR,SKC,0.00,WeatherDisplay:10.37,2013-05-15 06:48:00,
2013-05-15 02:53:00,53.8,46.4,29.75,North,0,3.5,3.5,76,0.00,CLR,SKC,0.00,WeatherDisplay:10.37,2013-05-15 06:53:00,
2013-05-15 02:58:00,53.8,46.7,29.75,NW,315,4.6,4.6,77,0.00,CLR,SKC,0.00,WeatherDisplay:10.37,2013-05-15 06:58:00,
2013-05-15 03:03:00,53.8,46.7,29.75,North,0,3.5,3.5,77,0.00,CLR,SKC,0.00,WeatherDisplay:10.37,2013-05-15 07:03:00,
2013-05-15 03:08:00,53.8,47.1,29.75,NW,315,5.8,5.8,78,0.00,CLR,SKC,0.00,WeatherDisplay:10.37,2013-05-15 07:08:00,
2013-05-15 03:13:00,53.8,47.4,29.75,North,0,5.8,5.8,79,0.00,CLR,SKC,0.00,WeatherDisplay:10.37,2013-05-15 07:13:00,
2013-05-15 03:18:00,53.8,47.8,29.75,WNW,292,4.6,4.6,80,0.00,CLR,SKC,0.00,WeatherDisplay:10.37,2013-05-15 07:18:00,
2013-05-15 03:23:00,54.0,47.9,29.74,NW,315,5.8,5.8,80,0.00,CLR,SKC,0.00,WeatherDisplay:10.37,2013-05-15 07:23:00,
2013-05-15 03:30:00,54.3,48.6,29.74,North,0,5.4,5.4,81,0.00,CLR,SKC,0.00,WeatherDisplay:10.37,2013-05-15 07:30:00,
2013-05-15 03:35:00,54.7,48.6,29.74,NNW,338,6.9,6.9,80,0.00,CLR,SKC,0.00,WeatherDisplay:10.37,2013-05-15 07:35:00,
2013-05-15 03:40:00,55.2,49.2,29.74,NW,315,5.8,5.8,80,0.00,CLR,SKC,0.00,WeatherDisplay:10.37,2013-05-15 07:40:00,
2013-05-15 03:45:00,55.4,48.7,29.74,WNW,292,5.8,5.8,78,0.00,CLR,SKC,0.00,WeatherDisplay:10.37,2013-05-15 07:45:00,
2013-05-15 03:50:00,55.6,48.8,29.74,NW,315,6.9,6.9,78,0.00,CLR,SKC,0.00,WeatherDisplay:10.37,2013-05-15 07:50:00,
2013-05-15 03:55:00,55.9,49.2,29.74,NNW,338,5.8,6.0,78,0.00,CLR,SKC,0.00,WeatherDisplay:10.37,2013-05-15 07:55:00,
2013-05-15 04:00:00,55.9,49.2,29.74,West,270,6.9,6.9,78,0.00,CLR,SKC,0.00,WeatherDisplay:10.37,2013-05-15 08:00:00,
2013-05-15 04:05:00,56.3,49.5,29.74,NNW,338,6.9,6.9,78,0.00,CLR,SKC,0.00,WeatherDisplay:10.37,2013-05-15 08:05:00,
2013-05-15 04:10:00,56.5,49.7,29.73,NW,315,8.1,8.1,78,0.00,CLR,SKC,0.00,WeatherDisplay:10.37,2013-05-15 08:10:00,
2013-05-15 04:15:00,56.5,49.7,29.73,WNW,292,8.1,8.1,78,0.00,CLR,SKC,0.00,WeatherDisplay:10.37,2013-05-15 08:15:00,
2013-05-15 04:20:00,56.5,49.7,29.73,West,270,6.9,6.9,78,0.00,CLR,SKC,0.00,WeatherDisplay:10.37,2013-05-15 08:20:00,
2013-05-15 04:25:00,56.7,50.2,29.73,WNW,292,6.9,6.9,79,0.00,CLR,SKC,0.00,WeatherDisplay:10.37,2013-05-15 08:25:00,
2013-05-15 04:30:00,56.7,50.2,29.73,NW,315,8.1,8.1,79,0.00,CLR,SKC,0.00,WeatherDisplay:10.37,2013-05-15 08:30:00,
2013-05-15 04:35:00,56.8,50.4,29.73,NW,315,8.1,8.1,79,0.00,CLR,SKC,0.00,WeatherDisplay:10.37,2013-05-15 08:35:00,
2013-05-15 04:40:00,56.8,50.4,29.73,NW,315,8.1,8.1,79,0.00,CLR,SKC,0.00,WeatherDisplay:10.37,2013-05-15 08:40:00,
2013-05-15 04:45:00,57.2,50.4,29.73,NW,315,6.9,6.9,78,0.00,CLR,SKC,0.00,WeatherDisplay:10.37,2013-05-15 08:45:00,
2013-05-15 04:50:00,57.4,50.6,29.73,North,0,8.1,8.1,78,0.00,CLR,SKC,0.00,WeatherDisplay:10.37,2013-05-15 08:50:00,
2013-05-15 04:55:00,57.6,50.8,29.73,NW,315,9.2,9.2,78,0.00,CLR,SKC,0.00,WeatherDisplay:10.37,2013-05-15 08:55:00,
2013-05-15 05:00:00,57.6,50.8,29.73,North,0,8.1,8.1,78,0.00,CLR,SKC,0.00,WeatherDisplay:10.37,2013-05-15 09:00:00,
2013-05-15 05:05:00,57.6,50.8,29.73,West,270,5.8,5.8,78,0.00,CLR,SKC,0.00,WeatherDisplay:10.37,2013-05-15 09:05:00,
2013-05-15 05:10:00,57.7,50.6,29.73,West,270,6.9,6.9,77,0.00,CLR,SKC,0.00,WeatherDisplay:10.37,2013-05-15 09:10:00,
2013-05-15 05:15:00,57.7,50.9,29.73,NW,315,6.0,6.0,78,0.00,CLR,SKC,0.00,WeatherDisplay:10.37,2013-05-15 09:15:00,
2013-05-15 05:20:00,57.7,50.9,29.73,NW,315,5.8,5.8,78,0.00,CLR,SKC,0.00,WeatherDisplay:10.37,2013-05-15 09:20:00,
2013-05-15 05:25:00,57.7,50.9,29.73,NE,45,6.9,6.9,78,0.00,CLR,SKC,0.00,WeatherDisplay:10.37,2013-05-15 09:25:00,
2013-05-15 05:30:00,57.7,50.9,29.73,North,0,8.1,8.1,78,0.00,CLR,SKC,0.00,WeatherDisplay:10.37,2013-05-15 09:30:00,
2013-05-15 05:35:00,57.7,50.9,29.73,NNE,22,5.8,5.8,78,0.00,CLR,SKC,0.00,WeatherDisplay:10.37,2013-05-15 09:35:00,
2013-05-15 05:40:00,57.7,50.9,29.74,NW,315,5.8,5.8,78,0.00,CLR,SKC,0.00,WeatherDisplay:10.37,2013-05-15 09:40:00,
2013-05-15 05:45:00,57.7,50.9,29.73,North,0,9.2,9.2,78,0.00,CLR,SKC,0.00,WeatherDisplay:10.37,2013-05-15 09:45:00,
2013-05-15 05:50:00,57.7,50.9,29.73,NW,315,8.1,8.1,78,0.00,CLR,SKC,0.00,WeatherDisplay:10.37,2013-05-15 09:50:00,
2013-05-15 05:55:00,57.7,50.9,29.74,North,0,4.6,4.6,78,0.00,CLR,SKC,0.00,WeatherDisplay:10.37,2013-05-15 09:55:00,
2013-05-15 06:00:00,57.6,50.8,29.73,SSW,202,3.5,3.5,78,0.00,CLR,SKC,0.00,WeatherDisplay:10.37,2013-05-15 10:00:00,
2013-05-15 06:05:00,57.4,50.9,29.73,NE,45,5.8,5.8,79,0.00,CLR,SKC,0.00,WeatherDisplay:10.37,2013-05-15 10:05:00,
2013-05-15 06:10:00,57.4,50.9,29.73,North,0,3.5,3.5,79,0.00,CLR,SKC,0.00,WeatherDisplay:10.37,2013-05-15 10:10:00,
2013-05-15 06:15:00,57.2,50.7,29.74,NW,315,4.6,4.6,79,0.00,CLR,SKC,0.00,WeatherDisplay:10.37,2013-05-15 10:15:00,
2013-05-15 06:20:00,57.2,51.1,29.74,North,0,4.6,4.6,80,0.00,CLR,SKC,0.00,WeatherDisplay:10.37,2013-05-15 10:20:00,
2013-05-15 06:25:00,57.2,51.1,29.74,North,0,5.8,5.8,80,0.00,CLR,SKC,0.00,WeatherDisplay:10.37,2013-05-15 10:25:00,
2013-05-15 06:30:00,57.4,51.3,29.74,SW,225,4.6,4.6,80,0.00,CLR,SKC,0.00,WeatherDisplay:10.37,2013-05-15 10:30:00,
2013-05-15 06:35:00,57.4,50.9,29.74,NW,315,2.3,2.3,79,0.00,CLR,SKC,0.00,WeatherDisplay:10.37,2013-05-15 10:35:00,
2013-05-15 06:40:00,57.6,51.1,29.74,NW,315,4.6,4.6,79,0.00,CLR,SKC,0.00,WeatherDisplay:10.37,2013-05-15 10:40:00,
2013-05-15 06:45:00,57.6,51.1,29.74,NW,315,6.9,6.9,79,0.00,CLR,SKC,0.00,WeatherDisplay:10.37,2013-05-15 10:45:00,
2013-05-15 06:50:00,57.7,51.3,29.74,NW,315,4.6,4.6,79,0.00,CLR,SKC,0.00,WeatherDisplay:10.37,2013-05-15 10:50:00,
2013-05-15 06:55:00,57.7,51.3,29.74,West,270,4.6,4.6,79,0.00,CLR,SKC,0.00,WeatherDisplay:10.37,2013-05-15 10:55:00,
2013-05-15 07:00:00,58.1,51.6,29.74,West,270,3.5,3.5,79,0.00,CLR,SKC,0.00,WeatherDisplay:10.37,2013-05-15 11:00:00,
2013-05-15 07:05:00,58.3,51.4,29.74,North,0,4.6,4.6,78,0.00,CLR,SKC,0.00,WeatherDisplay:10.37,2013-05-15 11:05:00,
2013-05-15 07:10:00,58.6,51.8,29.74,SW,225,2.3,2.3,78,0.00,CLR,SKC,0.00,WeatherDisplay:10.37,2013-05-15 11:10:00,
2013-05-15 07:15:00,59.2,52.0,29.74,NW,315,3.5,3.5,77,0.00,CLR,SKC,0.00,WeatherDisplay:10.37,2013-05-15 11:15:00,
2013-05-15 07:21:00,59.5,52.0,29.74,SW,225,3.5,3.5,76,0.00,CLR,SKC,0.00,WeatherDisplay:10.37,2013-05-15 11:21:00,
2013-05-15 07:26:00,59.9,52.3,29.74,NW,315,3.5,3.5,76,0.00,CLR,SKC,0.00,WeatherDisplay:10.37,2013-05-15 11:26:00,
2013-05-15 07:31:00,60.1,52.1,29.74,SSE,158,1.1,0.0,75,0.00,CLR,SKC,0.00,WeatherDisplay:10.37,2013-05-15 11:31:00,
2013-05-15 07:36:00,60.8,52.5,29.74,NW,315,3.5,3.5,74,0.00,CLR,SKC,0.00,WeatherDisplay:10.37,2013-05-15 11:36:00,
2013-05-15 07:41:00,61.0,52.3,29.74,South,180,5.8,5.8,73,0.00,CLR,SKC,0.00,WeatherDisplay:10.37,2013-05-15 11:41:00,
2013-05-15 07:46:00,61.2,52.1,29.74,SW,225,3.5,3.5,72,0.00,CLR,SKC,0.00,WeatherDisplay:10.37,2013-05-15 11:46:00,
2013-05-15 07:51:00,61.7,52.6,29.74,SE,135,5.8,5.8,72,0.00,CLR,SKC,0.00,WeatherDisplay:10.37,2013-05-15 11:51:00,
2013-05-15 07:56:00,62.1,52.5,29.74,NW,315,5.8,5.8,71,0.00,CLR,SKC,0.00,WeatherDisplay:10.37,2013-05-15 11:56:00,
2013-05-15 08:01:00,62.4,52.9,29.74,NW,315,5.8,5.8,71,0.00,CLR,SKC,0.00,WeatherDisplay:10.37,2013-05-15 12:01:00,
2013-05-15 08:06:00,62.4,52.1,29.74,North,0,6.9,6.9,69,0.00,CLR,SKC,0.00,WeatherDisplay:10.37,2013-05-15 12:06:00,
2013-05-15 08:11:00,62.8,52.5,29.74,NNE,22,4.6,4.6,69,0.00,CLR,SKC,0.00,WeatherDisplay:10.37,2013-05-15 12:11:00,
2013-05-15 08:16:00,63.1,52.8,29.74,West,270,5.8,5.8,69,0.00,CLR,SKC,0.00,WeatherDisplay:10.37,2013-05-15 12:16:00,
2013-05-15 08:22:00,63.5,52.7,29.74,North,0,3.5,3.5,68,0.00,CLR,SKC,0.00,WeatherDisplay:10.37,2013-05-15 12:22:00,
2013-05-15 08:27:00,63.9,52.7,29.74,SE,135,5.8,5.8,67,0.00,CLR,SKC,0.00,WeatherDisplay:10.37,2013-05-15 12:27:00,
2013-05-15 08:32:00,64.4,53.2,29.74,NNW,338,5.8,5.8,67,0.00,CLR,SKC,0.00,WeatherDisplay:10.37,2013-05-15 12:32:00,
2013-05-15 08:37:00,64.8,53.5,29.74,NW,315,5.8,5.8,67,0.00,CLR,SKC,0.00,WeatherDisplay:10.37,2013-05-15 12:37:00,
2013-05-15 08:42:00,65.3,54.1,29.73,South,180,3.5,3.5,67,0.00,CLR,SKC,0.00,WeatherDisplay:10.37,2013-05-15 12:42:00,
2013-05-15 08:47:00,66.0,54.3,29.74,WNW,292,3.5,3.5,66,0.00,CLR,SKC,0.00,WeatherDisplay:10.37,2013-05-15 12:47:00,
2013-05-15 08:53:00,68.2,55.1,29.73,North,0,3.5,3.5,63,0.00,CLR,SKC,0.00,WeatherDisplay:10.37,2013-05-15 12:53:00,
2013-05-15 08:59:00,69.6,54.7,29.74,SW,225,5.8,5.8,59,0.00,CLR,SKC,0.00,WeatherDisplay:10.37,2013-05-15 12:59:00,
2013-05-15 09:05:00,69.8,53.4,29.73,SW,225,5.8,5.8,56,0.00,CLR,SKC,0.00,WeatherDisplay:10.37,2013-05-15 13:05:00,
2013-05-15 09:10:00,69.4,54.0,29.73,SW,225,4.6,4.6,58,0.00,CLR,SKC,0.00,WeatherDisplay:10.37,2013-05-15 13:10:00,
2013-05-15 09:17:00,69.6,54.7,29.73,NW,315,8.1,8.1,59,0.00,CLR,SKC,0.00,WeatherDisplay:10.37,2013-05-15 13:17:00,
2013-05-15 09:22:00,69.6,54.7,29.73,ESE,112,5.8,5.8,59,0.00,CLR,SKC,0.00,WeatherDisplay:10.37,2013-05-15 13:22:00,
2013-05-15 09:27:00,70.3,54.9,29.73,NW,315,5.8,5.8,58,0.00,CLR,SKC,0.00,WeatherDisplay:10.37,2013-05-15 13:27:00,
2013-05-15 09:35:00,71.6,55.1,29.73,SW,225,4.6,4.6,56,0.00,CLR,SKC,0.00,WeatherDisplay:10.37,2013-05-15 13:35:00,
2013-05-15 09:40:00,73.4,56.2,29.73,West,270,3.5,3.5,55,0.00,CLR,SKC,0.00,WeatherDisplay:10.37,2013-05-15 13:40:00,
2013-05-15 09:45:00,73.2,56.1,29.73,SE,135,4.6,4.6,55,0.00,CLR,SKC,0.00,WeatherDisplay:10.37,2013-05-15 13:45:00,
2013-05-15 09:50:00,73.6,56.4,29.72,NW,315,9.2,9.2,55,0.00,CLR,SKC,0.00,WeatherDisplay:10.37,2013-05-15 13:50:00,
2013-05-15 09:55:00,73.0,56.4,29.72,North,0,8.1,8.1,56,0.00,CLR,SKC,0.00,WeatherDisplay:10.37,2013-05-15 13:55:00,
2013-05-15 10:00:00,74.1,57.4,29.72,South,180,4.6,4.6,56,0.00,CLR,SKC,0.00,WeatherDisplay:10.37,2013-05-15 14:00:00,
2013-05-15 10:05:00,74.7,57.9,29.72,NW,315,5.4,5.4,56,0.00,CLR,SKC,0.00,WeatherDisplay:10.37,2013-05-15 14:05:00,
2013-05-15 10:10:00,74.5,57.8,29.72,ENE,68,6.9,6.9,56,0.00,CLR,SKC,0.00,WeatherDisplay:10.37,2013-05-15 14:10:00,
2013-05-15 10:15:00,73.2,57.1,29.71,SW,225,4.6,4.6,57,0.00,CLR,SKC,0.00,WeatherDisplay:10.37,2013-05-15 14:15:00,
2013-05-15 10:21:00,73.6,56.9,29.72,North,0,3.5,3.5,56,0.00,CLR,SKC,0.00,WeatherDisplay:10.37,2013-05-15 14:21:00,
2013-05-15 10:26:00,74.1,57.4,29.72,SW,225,5.8,5.8,56,0.00,CLR,SKC,0.00,WeatherDisplay:10.37,2013-05-15 14:26:00,
2013-05-15 10:31:00,75.0,57.8,29.72,NW,315,4.6,4.6,55,0.00,CLR,SKC,0.00,WeatherDisplay:10.37,2013-05-15 14:31:00,
2013-05-15 10:36:00,75.4,57.6,29.72,SW,225,5.8,5.8,54,0.00,CLR,SKC,0.00,WeatherDisplay:10.37,2013-05-15 14:36:00,
2013-05-15 10:41:00,76.3,58.4,29.72,West,270,5.8,5.8,54,0.00,CLR,SKC,0.00,WeatherDisplay:10.37,2013-05-15 14:41:00,
2013-05-15 10:46:00,77.0,58.0,29.72,NW,315,5.8,5.8,52,0.00,CLR,SKC,0.00,WeatherDisplay:10.37,2013-05-15 14:46:00,
2013-05-15 10:51:00,76.6,59.3,29.71,NW,315,5.8,5.8,55,0.00,CLR,SKC,0.00,WeatherDisplay:10.37,2013-05-15 14:51:00,
2013-05-15 10:56:00,77.4,59.4,29.72,West,270,3.5,3.5,54,0.00,CLR,SKC,0.00,WeatherDisplay:10.37,2013-05-15 14:56:00,
2013-05-15 11:02:00,77.2,57.7,29.72,South,180,8.1,8.1,51,0.00,CLR,SKC,0.00,WeatherDisplay:10.37,2013-05-15 15:02:00,
2013-05-15 11:07:00,77.5,59.1,29.72,NW,315,3.5,3.5,53,0.00,CLR,SKC,0.00,WeatherDisplay:10.37,2013-05-15 15:07:00,
2013-05-15 11:12:00,77.5,59.1,29.72,NW,315,3.5,3.5,53,0.00,CLR,SKC,0.00,WeatherDisplay:10.37,2013-05-15 15:12:00,
2013-05-15 11:17:00,78.8,59.7,29.71,NNE,22,5.8,5.8,52,0.00,CLR,SKC,0.00,WeatherDisplay:10.37,2013-05-15 15:17:00,
2013-05-15 11:23:00,79.5,59.8,29.72,West,270,5.8,5.8,51,0.00,CLR,SKC,0.00,WeatherDisplay:10.37,2013-05-15 15:23:00,
2013-05-15 11:28:00,79.3,59.1,29.71,South,180,5.8,5.8,50,0.00,CLR,SKC,0.00,WeatherDisplay:10.37,2013-05-15 15:28:00,
2013-05-15 11:34:00,80.1,60.8,29.71,SW,225,3.5,3.5,52,0.00,CLR,SKC,0.00,WeatherDisplay:10.37,2013-05-15 15:34:00,
2013-05-15 11:39:00,80.2,59.9,29.71,NW,315,5.8,5.8,50,0.00,CLR,SKC,0.00,WeatherDisplay:10.37,2013-05-15 15:39:00,
2013-05-15 11:44:00,79.9,60.7,29.71,South,180,8.1,8.1,52,0.00,CLR,SKC,0.00,WeatherDisplay:10.37,2013-05-15 15:44:00,
2013-05-15 11:49:00,80.8,61.0,29.71,NW,315,3.5,3.5,51,0.00,CLR,SKC,0.00,WeatherDisplay:10.37,2013-05-15 15:49:00,
2013-05-15 11:54:00,81.1,60.2,29.71,NW,315,5.8,5.8,49,0.00,CLR,SKC,0.00,WeatherDisplay:10.37,2013-05-15 15:54:00,
2013-05-15 11:59:00,81.1,61.3,29.71,SW,225,5.8,5.8,51,0.00,CLR,SKC,0.00,WeatherDisplay:10.37,2013-05-15 15:59:00,
2013-05-15 12:04:00,81.7,60.1,29.71,NE,45,8.1,8.1,48,0.00,CLR,SKC,0.00,WeatherDisplay:10.37,2013-05-15 16:04:00,
2013-05-15 12:09:00,81.5,61.1,29.70,North,0,5.8,5.8,50,0.00,CLR,SKC,0.00,WeatherDisplay:10.37,2013-05-15 16:09:00,
2013-05-15 12:14:00,82.6,60.9,29.70,West,270,5.8,5.8,48,0.00,CLR,SKC,0.00,WeatherDisplay:10.37,2013-05-15 16:14:00,
2013-05-15 12:20:00,83.3,61.0,29.70,South,180,8.1,8.1,47,0.00,CLR,SKC,0.00,WeatherDisplay:10.37,2013-05-15 16:20:00,
2013-05-15 12:25:00,83.5,62.3,29.70,NW,315,3.5,3.5,49,0.00,CLR,SKC,0.00,WeatherDisplay:10.37,2013-05-15 16:25:00,
2013-05-15 12:30:00,84.2,61.2,29.69,SE,135,3.5,3.5,46,0.00,CLR,SKC,0.00,WeatherDisplay:10.37,2013-05-15 16:30:00,
2013-05-15 12:36:00,84.7,62.3,29.69,SE,135,5.8,5.8,47,0.00,CLR,SKC,0.00,WeatherDisplay:10.37,2013-05-15 16:36:00,
2013-05-15 12:41:00,84.7,61.7,29.69,SE,135,5.8,5.8,46,0.00,CLR,SKC,0.00,WeatherDisplay:10.37,2013-05-15 16:41:00,
2013-05-15 12:46:00,84.9,62.4,29.69,SW,225,4.6,4.6,47,0.00,CLR,SKC,0.00,WeatherDisplay:10.37,2013-05-15 16:46:00,
2013-05-15 12:51:00,84.4,61.9,29.69,NW,315,4.6,4.6,47,0.00,CLR,SKC,0.00,WeatherDisplay:10.37,2013-05-15 16:51:00,
2013-05-15 12:56:00,84.7,62.3,29.69,South,180,5.8,5.8,47,0.00,CLR,SKC,0.00,WeatherDisplay:10.37,2013-05-15 16:56:00,
2013-05-15 13:01:00,85.1,63.2,29.68,North,0,3.5,3.5,48,0.00,CLR,SKC,0.00,WeatherDisplay:10.37,2013-05-15 17:01:00,
2013-05-15 13:06:00,86.0,62.8,29.68,SW,225,5.8,5.8,46,0.00,CLR,SKC,0.00,WeatherDisplay:10.37,2013-05-15 17:06:00,
2013-05-15 13:11:00,84.7,61.7,29.68,NNE,22,5.8,5.8,46,0.00,CLR,SKC,0.00,WeatherDisplay:10.37,2013-05-15 17:11:00,
2013-05-15 13:16:00,85.1,62.6,29.68,SW,225,3.5,3.5,47,0.00,CLR,SKC,0.00,WeatherDisplay:10.37,2013-05-15 17:16:00,
2013-05-15 13:21:00,85.6,62.5,29.67,North,0,8.1,8.1,46,0.00,CLR,SKC,0.00,WeatherDisplay:10.37,2013-05-15 17:21:00,
2013-05-15 13:27:00,85.8,62.6,29.67,SW,225,4.6,4.6,46,0.00,CLR,SKC,0.00,WeatherDisplay:10.37,2013-05-15 17:27:00,
2013-05-15 13:33:00,85.8,62.6,29.67,South,180,4.6,4.6,46,0.00,CLR,SKC,0.00,WeatherDisplay:10.37,2013-05-15 17:33:00,
2013-05-15 13:38:00,86.7,63.5,29.67,NE,45,3.5,3.5,46,0.00,CLR,SKC,0.00,WeatherDisplay:10.37,2013-05-15 17:38:00,
2013-05-15 13:43:00,87.1,62.5,29.67,NW,315,3.5,3.5,44,0.00,CLR,SKC,0.00,WeatherDisplay:10.37,2013-05-15 17:43:00,
2013-05-15 13:49:00,87.1,63.2,29.66,SE,135,7.6,7.6,45,0.00,CLR,SKC,0.00,WeatherDisplay:10.37,2013-05-15 17:49:00,
2013-05-15 13:55:00,86.5,63.3,29.66,North,0,6.9,6.9,46,0.00,CLR,SKC,0.00,WeatherDisplay:10.37,2013-05-15 17:55:00,
2013-05-15 14:00:00,86.4,62.5,29.66,South,180,5.8,5.8,45,0.00,CLR,SKC,0.00,WeatherDisplay:10.37,2013-05-15 18:00:00,
2013-05-15 14:05:00,86.7,62.8,29.65,SW,225,6.9,6.9,45,0.00,CLR,SKC,0.00,WeatherDisplay:10.37,2013-05-15 18:05:00,
2013-05-15 14:10:00,87.1,62.5,29.65,NW,315,5.8,5.8,44,0.00,CLR,SKC,0.00,WeatherDisplay:10.37,2013-05-15 18:10:00,
2013-05-15 14:15:00,87.4,64.1,29.65,SW,225,3.5,3.5,46,0.00,CLR,SKC,0.00,WeatherDisplay:10.37,2013-05-15 18:15:00,
2013-05-15 14:20:00,87.6,63.0,29.65,SE,135,8.1,8.1,44,0.00,CLR,SKC,0.00,WeatherDisplay:10.37,2013-05-15 18:20:00,
2013-05-15 14:25:00,87.6,63.0,29.65,SW,225,6.9,6.9,44,0.00,CLR,SKC,0.00,WeatherDisplay:10.37,2013-05-15 18:25:00,
2013-05-15 14:30:00,87.6,62.4,29.64,SW,225,5.8,5.8,43,0.00,CLR,SKC,0.00,WeatherDisplay:10.37,2013-05-15 18:30:00,
2013-05-15 14:36:00,88.3,63.0,29.64,West,270,9.2,9.2,43,0.00,CLR,SKC,0.00,WeatherDisplay:10.37,2013-05-15 18:36:00,
2013-05-15 14:41:00,88.5,63.2,29.64,SE,135,9.2,9.2,43,0.00,CLR,SKC,0.00,WeatherDisplay:10.37,2013-05-15 18:41:00,
2013-05-15 14:46:00,88.5,62.5,29.63,West,270,8.1,8.1,42,0.00,CLR,SKC,0.00,WeatherDisplay:10.37,2013-05-15 18:46:00,
2013-05-15 14:51:00,88.0,62.0,29.63,West,270,6.9,6.9,42,0.00,CLR,SKC,0.00,WeatherDisplay:10.37,2013-05-15 18:51:00,
2013-05-15 14:56:00,88.7,62.7,29.63,NW,315,6.9,6.9,42,0.00,CLR,SKC,0.00,WeatherDisplay:10.37,2013-05-15 18:56:00,
2013-05-15 15:01:00,88.7,62.7,29.63,SE,135,6.9,6.9,42,0.00,CLR,SKC,0.00,WeatherDisplay:10.37,2013-05-15 19:01:00,
2013-05-15 15:06:00,88.7,62.7,29.63,East,90,10.4,10.4,42,0.00,CLR,SKC,0.00,WeatherDisplay:10.37,2013-05-15 19:06:00,
2013-05-15 15:12:00,88.7,62.0,29.62,NW,315,5.8,5.8,41,0.00,CLR,SKC,0.00,WeatherDisplay:10.37,2013-05-15 19:12:00,
2013-05-15 15:17:00,89.4,63.3,29.62,South,180,4.6,4.6,42,0.00,CLR,SKC,0.00,WeatherDisplay:10.37,2013-05-15 19:17:00,
2013-05-15 15:22:00,89.8,61.5,29.62,South,180,8.1,8.1,39,0.00,CLR,SKC,0.00,WeatherDisplay:10.37,2013-05-15 19:22:00,
2013-05-15 15:27:00,89.6,61.4,29.62,North,0,5.8,5.8,39,0.00,CLR,SKC,0.00,WeatherDisplay:10.37,2013-05-15 19:27:00,
2013-05-15 15:33:00,90.1,62.6,29.62,SSW,202,5.8,5.8,40,0.00,CLR,SKC,0.00,WeatherDisplay:10.37,2013-05-15 19:33:00,
2013-05-15 15:39:00,90.0,62.4,29.62,WNW,292,4.6,4.6,40,0.00,CLR,SKC,0.00,WeatherDisplay:10.37,2013-05-15 19:39:00,
2013-05-15 15:44:00,90.5,63.6,29.61,North,0,3.5,3.5,41,0.00,CLR,SKC,0.00,WeatherDisplay:10.37,2013-05-15 19:44:00,
2013-05-15 15:49:00,91.4,63.7,29.61,NNE,22,4.6,4.6,40,0.00,CLR,SKC,0.00,WeatherDisplay:10.37,2013-05-15 19:49:00,
2013-05-15 15:54:00,90.9,61.7,29.61,East,90,8.1,8.1,38,0.00,CLR,SKC,0.00,WeatherDisplay:10.37,2013-05-15 19:54:00,
2013-05-15 15:59:00,90.1,61.8,29.61,NW,315,5.8,5.8,39,0.00,CLR,SKC,0.00,WeatherDisplay:10.37,2013-05-15 19:59:00,
2013-05-15 16:04:00,90.7,62.3,29.60,South,180,3.5,3.8,39,0.00,CLR,SKC,0.00,WeatherDisplay:10.37,2013-05-15 20:04:00,
2013-05-15 16:10:00,90.7,61.6,29.60,SW,225,5.8,5.8,38,0.00,CLR,SKC,0.00,WeatherDisplay:10.37,2013-05-15 20:10:00,
2013-05-15 16:15:00,90.3,61.3,29.60,NW,315,6.9,6.9,38,0.00,CLR,SKC,0.00,WeatherDisplay:10.37,2013-05-15 20:15:00,
2013-05-15 16:22:00,90.9,61.7,29.60,SW,225,3.5,3.5,38,0.00,CLR,SKC,0.00,WeatherDisplay:10.37,2013-05-15 20:22:00,
2013-05-15 16:27:00,90.9,62.5,29.60,SW,225,8.1,8.1,39,0.00,CLR,SKC,0.00,WeatherDisplay:10.37,2013-05-15 20:27:00,
2013-05-15 16:32:00,91.0,62.6,29.60,North,0,3.5,3.8,39,0.00,CLR,SKC,0.00,WeatherDisplay:10.37,2013-05-15 20:32:00,
2013-05-15 16:37:00,90.7,60.8,29.59,WNW,292,10.4,10.4,37,0.00,CLR,SKC,0.00,WeatherDisplay:10.37,2013-05-15 20:37:00,
2013-05-15 16:42:00,90.0,60.9,29.59,SE,135,5.8,5.8,38,0.00,CLR,SKC,0.00,WeatherDisplay:10.37,2013-05-15 20:42:00,
2013-05-15 16:48:00,90.7,63.7,29.59,WNW,292,3.5,3.5,41,0.00,CLR,SKC,0.00,WeatherDisplay:10.37,2013-05-15 20:48:00,
2013-05-15 16:54:00,90.9,61.7,29.59,South,180,5.8,5.8,38,0.00,CLR,SKC,0.00,WeatherDisplay:10.37,2013-05-15 20:54:00,
2013-05-15 16:59:00,91.0,62.6,29.59,South,180,6.9,6.9,39,0.00,CLR,SKC,0.00,WeatherDisplay:10.37,2013-05-15 20:59:00,
2013-05-15 17:04:00,90.3,61.3,29.59,North,0,6.9,6.9,38,0.00,CLR,SKC,0.00,WeatherDisplay:10.37,2013-05-15 21:04:00,
2013-05-15 17:09:00,90.9,61.7,29.59,South,180,10.4,10.4,38,0.00,CLR,SKC,0.00,WeatherDisplay:10.37,2013-05-15 21:09:00,
2013-05-15 17:14:00,91.4,63.0,29.59,North,0,3.5,3.5,39,0.00,CLR,SKC,0.00,WeatherDisplay:10.37,2013-05-15 21:14:00,
2013-05-15 17:19:00,90.7,61.6,29.59,NW,315,5.8,5.8,38,0.00,CLR,SKC,0.00,WeatherDisplay:10.37,2013-05-15 21:19:00,
2013-05-15 17:24:00,90.5,61.4,29.59,NW,315,6.9,6.9,38,0.00,CLR,SKC,0.00,WeatherDisplay:10.37,2013-05-15 21:24:00,
2013-05-15 17:29:00,90.9,61.0,29.58,NW,315,5.8,5.8,37,0.00,CLR,SKC,0.00,WeatherDisplay:10.37,2013-05-15 21:29:00,
2013-05-15 17:34:00,90.7,62.3,29.59,North,0,8.1,8.1,39,0.00,CLR,SKC,0.00,WeatherDisplay:10.37,2013-05-15 21:34:00,
2013-05-15 17:39:00,90.7,61.6,29.59,SW,225,3.5,3.5,38,0.00,CLR,SKC,0.00,WeatherDisplay:10.37,2013-05-15 21:39:00,
2013-05-15 17:45:00,91.2,62.8,29.59,SW,214,2.0,8.0,39,0.00,CLR,SKC,0.00,WeatherDisplay:10.37,2013-05-15 21:45:00,
2013-05-15 17:50:00,91.0,61.1,29.58,NW,315,8.1,8.1,37,0.00,CLR,SKC,0.00,WeatherDisplay:10.37,2013-05-15 21:50:00,
2013-05-15 17:57:00,90.3,60.5,29.58,NW,315,6.9,6.9,37,0.00,CLR,SKC,0.00,WeatherDisplay:10.37,2013-05-15 21:57:00,
2013-05-15 18:02:00,90.5,61.4,29.58,NW,315,6.9,6.9,38,0.00,CLR,SKC,0.00,WeatherDisplay:10.37,2013-05-15 22:02:00,
2013-05-15 18:07:00,90.1,61.8,29.58,NW,315,4.6,4.6,39,0.00,CLR,SKC,0.00,WeatherDisplay:10.37,2013-05-15 22:07:00,
2013-05-15 18:12:00,90.3,60.5,29.58,WNW,292,8.1,8.1,37,0.00,CLR,SKC,0.00,WeatherDisplay:10.37,2013-05-15 22:12:00,
2013-05-15 18:17:00,90.1,61.1,29.58,SW,225,8.1,8.1,38,0.00,CLR,SKC,0.00,WeatherDisplay:10.37,2013-05-15 22:17:00,
2013-05-15 18:22:00,90.1,61.8,29.58,NW,315,5.8,5.8,39,0.00,CLR,SKC,0.00,WeatherDisplay:10.37,2013-05-15 22:22:00,
2013-05-15 18:27:00,90.5,62.9,29.57,SW,225,3.5,3.5,40,0.00,CLR,SKC,0.00,WeatherDisplay:10.37,2013-05-15 22:27:00,
2013-05-15 18:33:00,90.1,62.6,29.58,NW,315,5.8,5.8,40,0.00,CLR,SKC,0.00,WeatherDisplay:10.37,2013-05-15 22:33:00,
2013-05-15 18:38:00,90.1,61.8,29.58,South,180,3.5,3.5,39,0.00,CLR,SKC,0.00,WeatherDisplay:10.37,2013-05-15 22:38:00,
2013-05-15 18:43:00,89.8,62.9,29.58,SW,225,3.5,3.5,41,0.00,CLR,SKC,0.00,WeatherDisplay:10.37,2013-05-15 22:43:00,
2013-05-15 18:49:00,90.0,63.1,29.58,NW,315,3.5,3.5,41,0.00,CLR,SKC,0.00,WeatherDisplay:10.37,2013-05-15 22:49:00,
2013-05-15 18:54:00,89.4,63.3,29.58,North,0,4.6,4.6,42,0.00,CLR,SKC,0.00,WeatherDisplay:10.37,2013-05-15 22:54:00,
2013-05-15 19:00:00,88.7,62.7,29.58,SW,225,4.6,4.6,42,0.00,CLR,SKC,0.00,WeatherDisplay:10.37,2013-05-15 23:00:00,
2013-05-15 19:05:00,88.5,62.5,29.57,NW,315,3.5,3.5,42,0.00,CLR,SKC,0.00,WeatherDisplay:10.37,2013-05-15 23:05:00,
2013-05-15 19:10:00,88.2,62.2,29.57,SW,225,4.6,4.6,42,0.00,CLR,SKC,0.00,WeatherDisplay:10.37,2013-05-15 23:10:00,
2013-05-15 19:15:00,87.8,61.9,29.57,WSW,248,3.5,3.5,42,0.00,CLR,SKC,0.00,WeatherDisplay:10.37,2013-05-15 23:15:00,
2013-05-15 19:20:00,87.3,62.7,29.57,NW,315,3.5,3.5,44,0.00,CLR,SKC,0.00,WeatherDisplay:10.37,2013-05-15 23:20:00,
2013-05-15 19:25:00,86.7,62.2,29.57,SSW,202,3.5,3.5,44,0.00,CLR,SKC,0.00,WeatherDisplay:10.37,2013-05-15 23:25:00,
2013-05-15 19:30:00,86.7,62.2,29.57,NW,315,3.5,3.5,44,0.00,CLR,SKC,0.00,WeatherDisplay:10.37,2013-05-15 23:30:00,
2013-05-15 19:35:00,86.0,61.5,29.57,North,0,3.5,3.5,44,0.00,CLR,SKC,0.00,WeatherDisplay:10.37,2013-05-15 23:35:00,
2013-05-15 19:40:00,85.1,62.0,29.57,SW,225,4.6,4.6,46,0.00,CLR,SKC,0.00,WeatherDisplay:10.37,2013-05-15 23:40:00,
2013-05-15 19:45:00,84.4,61.3,29.57,NW,315,5.8,5.8,46,0.00,CLR,SKC,0.00,WeatherDisplay:10.37,2013-05-15 23:45:00,
2013-05-15 19:50:00,83.7,61.9,29.57,West,270,4.6,4.6,48,0.00,CLR,SKC,0.00,WeatherDisplay:10.37,2013-05-15 23:50:00,
2013-05-15 19:55:00,82.9,61.8,29.57,NE,45,3.5,3.5,49,0.00,CLR,SKC,0.00,WeatherDisplay:10.37,2013-05-15 23:55:00,
2013-05-15 20:00:00,82.2,61.7,29.58,West,270,2.3,2.3,50,0.00,CLR,SKC,0.00,WeatherDisplay:10.37,2013-05-16 00:00:00,
2013-05-15 20:05:00,81.5,61.6,29.58,NW,315,3.5,3.5,51,0.00,CLR,SKC,0.00,WeatherDisplay:10.37,2013-05-16 00:05:00,
2013-05-15 20:10:00,81.3,61.5,29.57,NW,315,6.9,6.9,51,0.00,CLR,SKC,0.00,WeatherDisplay:10.37,2013-05-16 00:10:00,
2013-05-15 20:15:00,81.1,61.8,29.57,North,0,5.8,5.8,52,0.00,CLR,SKC,0.00,WeatherDisplay:10.37,2013-05-16 00:15:00,
2013-05-15 20:20:00,80.8,62.1,29.57,North,0,5.8,5.8,53,0.00,CLR,SKC,0.00,WeatherDisplay:10.37,2013-05-16 00:20:00,
2013-05-15 20:25:00,80.4,62.2,29.57,SW,225,4.6,4.6,54,0.00,CLR,SKC,0.00,WeatherDisplay:10.37,2013-05-16 00:25:00,
2013-05-15 20:30:00,80.2,62.1,29.58,North,0,4.6,4.6,54,0.00,CLR,SKC,0.00,WeatherDisplay:10.37,2013-05-16 00:30:00,
2013-05-15 20:35:00,80.2,62.1,29.58,West,270,3.5,3.5,54,0.00,CLR,SKC,0.00,WeatherDisplay:10.37,2013-05-16 00:35:00,
2013-05-15 20:40:00,80.2,62.1,29.58,West,270,6.9,6.9,54,0.00,CLR,SKC,0.00,WeatherDisplay:10.37,2013-05-16 00:40:00,
2013-05-15 20:45:00,80.4,62.2,29.58,North,0,3.5,3.5,54,0.00,CLR,SKC,0.00,WeatherDisplay:10.37,2013-05-16 00:45:00,
2013-05-15 20:51:00,80.2,62.1,29.58,North,0,4.6,4.6,54,0.00,CLR,SKC,0.00,WeatherDisplay:10.37,2013-05-16 00:51:00,
2013-05-15 20:56:00,80.2,62.1,29.58,North,0,3.5,3.5,54,0.00,CLR,SKC,0.00,WeatherDisplay:10.37,2013-05-16 00:56:00,
2013-05-15 21:01:00,80.1,61.9,29.58,West,270,3.5,3.5,54,0.00,CLR,SKC,0.00,WeatherDisplay:10.37,2013-05-16 01:01:00,
2013-05-15 21:06:00,79.9,61.7,29.58,West,270,4.6,4.6,54,0.00,CLR,SKC,0.00,WeatherDisplay:10.37,2013-05-16 01:06:00,
2013-05-15 21:11:00,79.7,62.1,29.59,SW,225,3.5,3.5,55,0.00,CLR,SKC,0.00,WeatherDisplay:10.37,2013-05-16 01:11:00,
2013-05-15 21:16:00,79.5,61.9,29.59,West,270,5.8,5.8,55,0.00,CLR,SKC,0.00,WeatherDisplay:10.37,2013-05-16 01:16:00,
2013-05-15 21:21:00,79.3,61.8,29.59,NW,315,3.5,3.5,55,0.00,CLR,SKC,0.00,WeatherDisplay:10.37,2013-05-16 01:21:00,
2013-05-15 21:26:00,79.2,62.1,29.59,NW,315,3.5,3.5,56,0.00,CLR,SKC,0.00,WeatherDisplay:10.37,2013-05-16 01:26:00,
2013-05-15 21:31:00,79.0,61.9,29.59,ESE,112,4.6,4.6,56,0.00,CLR,SKC,0.00,WeatherDisplay:10.37,2013-05-16 01:31:00,
2013-05-15 21:36:00,78.6,62.6,29.59,SW,225,5.8,5.8,58,0.00,CLR,SKC,0.00,WeatherDisplay:10.37,2013-05-16 01:36:00,
2013-05-15 21:41:00,78.4,62.4,29.59,SW,225,4.6,4.6,58,0.00,CLR,SKC,0.00,WeatherDisplay:10.37,2013-05-16 01:41:00,
2013-05-15 21:47:00,78.4,62.4,29.60,WNW,292,3.5,3.5,58,0.00,CLR,SKC,0.00,WeatherDisplay:10.37,2013-05-16 01:47:00,
2013-05-15 21:52:00,78.4,62.4,29.60,NW,315,4.6,4.6,58,0.00,CLR,SKC,0.00,WeatherDisplay:10.37,2013-05-16 01:52:00,
2013-05-15 21:57:00,78.4,62.4,29.60,North,0,4.6,4.6,58,0.00,CLR,SKC,0.00,WeatherDisplay:10.37,2013-05-16 01:57:00,
2013-05-15 22:02:00,78.4,62.4,29.60,SW,225,3.5,3.5,58,0.00,CLR,SKC,0.00,WeatherDisplay:10.37,2013-05-16 02:02:00,
2013-05-15 22:07:00,78.4,62.4,29.60,North,0,5.8,5.8,58,0.00,CLR,SKC,0.00,WeatherDisplay:10.37,2013-05-16 02:07:00,
2013-05-15 22:13:00,78.1,62.6,29.60,West,270,3.5,3.5,59,0.00,CLR,SKC,0.00,WeatherDisplay:10.37,2013-05-16 02:13:00,
2013-05-15 22:18:00,77.7,62.2,29.60,SSW,202,4.6,4.6,59,0.00,CLR,SKC,0.00,WeatherDisplay:10.37,2013-05-16 02:18:00,
2013-05-15 22:23:00,77.7,62.2,29.60,SW,225,3.5,3.5,59,0.00,CLR,SKC,0.00,WeatherDisplay:10.37,2013-05-16 02:23:00,
2013-05-15 22:29:00,77.5,62.6,29.60,South,180,4.6,4.6,60,0.00,CLR,SKC,0.00,WeatherDisplay:10.37,2013-05-16 02:29:00,
2013-05-15 22:35:00,77.2,62.7,29.60,North,0,3.5,3.5,61,0.00,CLR,SKC,0.00,WeatherDisplay:10.37,2013-05-16 02:35:00,
2013-05-15 22:40:00,77.0,62.5,29.60,NE,45,4.6,4.6,61,0.00,CLR,SKC,0.00,WeatherDisplay:10.37,2013-05-16 02:40:00,
2013-05-15 22:45:00,77.0,62.5,29.60,NW,315,3.5,3.5,61,0.00,CLR,SKC,0.00,WeatherDisplay:10.37,2013-05-16 02:45:00,
2013-05-15 22:50:00,76.8,62.8,29.60,NW,315,3.5,3.5,62,0.00,CLR,SKC,0.00,WeatherDisplay:10.37,2013-05-16 02:50:00,
2013-05-15 22:55:00,76.8,62.8,29.60,North,0,3.5,3.5,62,0.00,CLR,SKC,0.00,WeatherDisplay:10.37,2013-05-16 02:55:00,
2013-05-15 23:00:00,76.8,62.8,29.60,West,270,5.8,5.8,62,0.00,CLR,SKC,0.00,WeatherDisplay:10.37,2013-05-16 03:00:00,
2013-05-15 23:06:00,77.0,62.5,29.60,ENE,68,3.5,3.5,61,0.00,CLR,SKC,0.00,WeatherDisplay:10.37,2013-05-16 03:06:00,
2013-05-15 23:11:00,76.8,62.8,29.60,NW,315,3.5,3.5,62,0.00,CLR,SKC,0.00,WeatherDisplay:10.37,2013-05-16 03:11:00,
2013-05-15 23:16:00,76.8,62.8,29.60,SSW,202,5.8,5.8,62,0.00,CLR,SKC,0.00,WeatherDisplay:10.37,2013-05-16 03:16:00,
2013-05-15 23:21:00,76.6,62.6,29.60,SE,135,3.5,3.5,62,0.00,CLR,SKC,0.00,WeatherDisplay:10.37,2013-05-16 03:21:00,
2013-05-15 23:26:00,76.5,62.5,29.60,South,180,4.6,4.6,62,0.00,CLR,SKC,0.00,WeatherDisplay:10.37,2013-05-16 03:26:00,
2013-05-15 23:32:00,76.3,62.8,29.60,NW,315,3.5,3.5,63,0.00,CLR,SKC,0.00,WeatherDisplay:10.37,2013-05-16 03:32:00,
2013-05-15 23:37:00,76.1,62.6,29.60,South,180,3.5,3.5,63,0.00,CLR,SKC,0.00,WeatherDisplay:10.37,2013-05-16 03:37:00,
2013-05-15 23:42:00,75.9,62.9,29.60,North,0,3.5,3.5,64,0.00,CLR,SKC,0.00,WeatherDisplay:10.37,2013-05-16 03:42:00,
2013-05-15 23:48:00,75.7,62.7,29.60,West,270,3.5,3.5,64,0.00,CLR,SKC,0.00,WeatherDisplay:10.37,2013-05-16 03:48:00,
2013-05-15 23:53:00,75.4,62.4,29.60,West,270,5.8,0.0,64,0.00,CLR,SKC,0.00,WeatherDisplay:10.37,2013-05-16 03:53:00,
2013-05-15 23:58:00,75.4,62.4,29.60,NW,315,3.5,3.5,64,0.00,CLR,SKC,0.00,WeatherDisplay:10.37,2013-05-16 03:58:00,